Location: Krasnoyarskiy Pitomnik
(51.1333°N, 71.6167°E)
Time: 10:17:07
(UTC+00:00)

Cosmos 1461 - Pass Details

Date: 22 October 2021
Orbit: 523 x 639 km, 65.0° (Epoch: 06 December)

Event Time Altitude Azimuth Distance (km) Brightness Sun altitude
Exits shadow 23:04:20 29° 10° (N) 1,054 4.4 -26.5°
Drops below altitude 10° 23:06:41 10° 32° (NNE) 1,844 6.1 -26.2°
Sets 23:08:57 0° 39° (NE) 2,724 7.2 -25.8°
